• Em Portugal
  • Lista de países
  • Para 7 dias
  • Temperatura da água
  • Mapas de satélite
  • Mapa do tempo
  • Widgets de tempo
  • user-avatar
    Iniciar Sessão

    Previsão horária em Stany

    Hoje, 21 Abril, Sábado

    Tempo Temperatura Precipitação Vento Pressão Humidade
    00:00 +12°C° 0 mm 2 m/s 751 mmHg 63%
    01:00 +10°C° 0 mm 2 m/s 751 mmHg 65%
    02:00 +10°C° 0 mm 3 m/s 750 mmHg 65%
    03:00 +10°C° 0 mm 3 m/s 750 mmHg 66%
    04:00 +10°C° 0 mm 3 m/s 749 mmHg 67%
    05:00 +11°C° 0 mm 3 m/s 749 mmHg 62%
    06:00 +13°C° 0 mm 4 m/s 748 mmHg 58%
    07:00 +15°C° 0 mm 4 m/s 748 mmHg 54%
    08:00 +17°C° 0 mm 5 m/s 748 mmHg 50%
    09:00 +20°C° 0 mm 5 m/s 748 mmHg 47%
    10:00 +23°C° 0 mm 6 m/s 747 mmHg 43%
    11:00 +24°C° 0 mm 6 m/s 747 mmHg 43%
    12:00 +26°C° 0 mm 6 m/s 747 mmHg 43%
    13:00 +27°C° 0 mm 7 m/s 747 mmHg 42%
    14:00 +26°C° 0 mm 6 m/s 746 mmHg 46%
    15:00 +25°C° 0 mm 5 m/s 746 mmHg 49%
    16:00 +25°C° 0 mm 5 m/s 746 mmHg 52%
    17:00 +22°C° 0,1 mm 4 m/s 746 mmHg 56%
    18:00 +20°C° 0,1 mm 4 m/s 746 mmHg 60%
    19:00 +18°C° 0,1 mm 3 m/s 746 mmHg 64%
    20:00 +17°C° 0 mm 3 m/s 747 mmHg 65%
    21:00 +16°C° 0 mm 3 m/s 747 mmHg 67%
    22:00 +15°C° 0 mm 2 m/s 747 mmHg 69%
    23:00 +14°C° 0 mm 2 m/s 748 mmHg 71%

    Amanhã, 22 Abril, Domingo

    Tempo Temperatura Precipitação Vento Pressão Humidade
    00:00 +13°C° 0 mm 2 m/s 748 mmHg 72%
    01:00 +12°C° 0 mm 2 m/s 748 mmHg 73%
    02:00 +11°C° 0 mm 1 m/s 748 mmHg 74%
    03:00 +10°C° 0 mm 1 m/s 748 mmHg 74%
    04:00 +9°C° 0 mm 1 m/s 748 mmHg 74%
    05:00 +11°C° 0 mm 1 m/s 748 mmHg 70%
    06:00 +12°C° 0 mm 1 m/s 748 mmHg 65%
    07:00 +13°C° 0 mm 2 m/s 749 mmHg 60%
    08:00 +14°C° 0 mm 2 m/s 749 mmHg 54%
    09:00 +16°C° 0 mm 2 m/s 748 mmHg 48%
    10:00 +17°C° 0 mm 3 m/s 748 mmHg 42%
    11:00 +18°C° 0 mm 3 m/s 748 mmHg 40%
    12:00 +19°C° 0 mm 3 m/s 748 mmHg 38%
    13:00 +20°C° 0 mm 3 m/s 748 mmHg 35%
    14:00 +20°C° 0 mm 3 m/s 747 mmHg 36%
    15:00 +19°C° 0 mm 3 m/s 747 mmHg 37%
    16:00 +19°C° 0 mm 3 m/s 747 mmHg 38%
    17:00 +18°C° 0 mm 2 m/s 747 mmHg 43%
    18:00 +16°C° 0 mm 2 m/s 747 mmHg 49%
    19:00 +14°C° 0 mm 1 m/s 747 mmHg 54%
    20:00 +13°C° 0 mm 1 m/s 747 mmHg 56%
    21:00 +12°C° 0 mm 1 m/s 747 mmHg 59%
    22:00 +11°C° 0 mm 1 m/s 747 mmHg 61%
    23:00 +10°C° 0 mm 0 m/s 747 mmHg 62%

    Depois de amanhã, 23 Abril, Segunda-feira

    Tempo Temperatura Precipitação Vento Pressão Humidade
    00:00 +10°C° 0 mm 0 m/s 747 mmHg 63%
    01:00 +9°C° 0 mm 0 m/s 747 mmHg 64%
    02:00 +9°C° 0 mm 0 m/s 747 mmHg 66%
    03:00 +8°C° 0 mm 0 m/s 747 mmHg 67%
    04:00 +8°C° 0 mm 0 m/s 747 mmHg 69%
    05:00 +10°C° 0 mm 0 m/s 747 mmHg 65%
    06:00 +11°C° 0 mm 0 m/s 747 mmHg 60%
    07:00 +14°C° 0 mm 1 m/s 747 mmHg 56%
    08:00 +16°C° 0 mm 1 m/s 746 mmHg 51%
    09:00 +18°C° 0 mm 1 m/s 746 mmHg 47%
    10:00 +19°C° 0 mm 2 m/s 746 mmHg 42%
    11:00 +20°C° 0 mm 2 m/s 745 mmHg 41%
    12:00 +21°C° 0 mm 2 m/s 745 mmHg 39%
    13:00 +24°C° 0 mm 2 m/s 745 mmHg 38%
    14:00 +24°C° 0 mm 2 m/s 744 mmHg 40%
    15:00 +24°C° 0 mm 2 m/s 744 mmHg 42%
    16:00 +25°C° 0 mm 2 m/s 743 mmHg 44%
    17:00 +21°C° 2 mm 2 m/s 743 mmHg 57%
    18:00 +19°C° 2 mm 2 m/s 742 mmHg 71%
    19:00 +17°C° 2 mm 2 m/s 742 mmHg 84%
    20:00 +17°C° 0,9 mm 2 m/s 742 mmHg 87%
    21:00 +16°C° 0,9 mm 2 m/s 742 mmHg 90%
    22:00 +16°C° 0,9 mm 2 m/s 742 mmHg 93%
    23:00 +15°C° 0,3 mm 2 m/s 742 mmHg 94%

    24 Abril, Terça-feira

    Tempo Temperatura Precipitação Vento Pressão Humidade
    00:00 +15°C° 0,3 mm 2 m/s 742 mmHg 95%
    01:00 +13°C° 0,3 mm 3 m/s 742 mmHg 96%
    02:00 +13°C° 0,3 mm 3 m/s 743 mmHg 96%
    03:00 +13°C° 0,3 mm 3 m/s 743 mmHg 96%
    04:00 +13°C° 0,3 mm 3 m/s 744 mmHg 96%
    05:00 +13°C° 0,2 mm 4 m/s 744 mmHg 91%
    06:00 +13°C° 0,2 mm 5 m/s 745 mmHg 86%
    07:00 +13°C° 0,2 mm 5 m/s 745 mmHg 81%
    08:00 +14°C° 0 mm 5 m/s 746 mmHg 74%
    09:00 +15°C° 0 mm 5 m/s 746 mmHg 66%
    10:00 +16°C° 0 mm 5 m/s 747 mmHg 58%
    11:00 +17°C° 0 mm 5 m/s 746 mmHg 57%
    12:00 +17°C° 0 mm 5 m/s 746 mmHg 56%
    13:00 +17°C° 0 mm 5 m/s 746 mmHg 55%
    14:00 +17°C° 0 mm 5 m/s 746 mmHg 54%
    15:00 +19°C° 0 mm 5 m/s 746 mmHg 53%
    16:00 +19°C° 0 mm 5 m/s 746 mmHg 52%
    17:00 +18°C° 0 mm 4 m/s 746 mmHg 57%
    18:00 +17°C° 0 mm 3 m/s 745 mmHg 62%
    19:00 +15°C° 0 mm 2 m/s 745 mmHg 67%
    20:00 +15°C° 0 mm 2 m/s 745 mmHg 68%
    21:00 +13°C° 0 mm 3 m/s 745 mmHg 70%
    22:00 +13°C° 0 mm 3 m/s 745 mmHg 72%
    23:00 +13°C° 0 mm 3 m/s 745 mmHg 71%

    25 Abril, Quarta-feira

    Tempo Temperatura Precipitação Vento Pressão Humidade
    00:00 +12°C° 0 mm 4 m/s 745 mmHg 71%
    01:00 +12°C° 0 mm 4 m/s 745 mmHg 70%
    02:00 +12°C° 0 mm 4 m/s 745 mmHg 71%
    03:00 +12°C° 0 mm 3 m/s 745 mmHg 73%
    04:00 +12°C° 0 mm 3 m/s 745 mmHg 74%
    05:00 +13°C° 0 mm 4 m/s 745 mmHg 72%
    06:00 +14°C° 0 mm 4 m/s 745 mmHg 69%
    07:00 +15°C° 0 mm 4 m/s 745 mmHg 67%
    08:00 +18°C° 0 mm 4 m/s 745 mmHg 61%
    09:00 +19°C° 0 mm 5 m/s 745 mmHg 56%
    10:00 +21°C° 0 mm 5 m/s 745 mmHg 50%
    11:00 +22°C° 0 mm 5 m/s 745 mmHg 49%
    12:00 +23°C° 0 mm 5 m/s 745 mmHg 47%
    13:00 +24°C° 0 mm 6 m/s 744 mmHg 45%
    14:00 +25°C° 0 mm 5 m/s 743 mmHg 46%
    15:00 +25°C° 0 mm 5 m/s 743 mmHg 47%
    16:00 +25°C° 0 mm 4 m/s 742 mmHg 47%
    17:00 +22°C° 0 mm 4 m/s 742 mmHg 52%
    18:00 +21°C° 0 mm 3 m/s 742 mmHg 56%
    19:00 +19°C° 0 mm 2 m/s 742 mmHg 61%
    20:00 +18°C° 0,8 mm 2 m/s 742 mmHg 69%
    21:00 +17°C° 0,8 mm 2 m/s 742 mmHg 78%
    22:00 +16°C° 0,8 mm 2 m/s 742 mmHg 86%
    23:00 +16°C° 0,2 mm 3 m/s 742 mmHg 88%

    26 Abril, Quinta-feira

    Tempo Temperatura Precipitação Vento Pressão Humidade
    00:00 +16°C° 0,2 mm 3 m/s 742 mmHg 90%
    01:00 +14°C° 0,2 mm 3 m/s 741 mmHg 91%
    02:00 +14°C° 0 mm 3 m/s 741 mmHg 91%
    03:00 +14°C° 0 mm 3 m/s 741 mmHg 92%
    04:00 +14°C° 0 mm 3 m/s 742 mmHg 92%
    05:00 +14°C° 0 mm 4 m/s 742 mmHg 88%
    06:00 +15°C° 0 mm 4 m/s 742 mmHg 84%
    07:00 +17°C° 0 mm 4 m/s 743 mmHg 80%
    08:00 +18°C° 0 mm 4 m/s 743 mmHg 75%
    09:00 +18°C° 0 mm 4 m/s 743 mmHg 69%
    10:00 +19°C° 0 mm 4 m/s 743 mmHg 64%
    11:00 +19°C° 0,4 mm 4 m/s 743 mmHg 66%
    12:00 +19°C° 0,4 mm 4 m/s 743 mmHg 68%
    13:00 +18°C° 0,4 mm 4 m/s 743 mmHg 69%
    14:00 +18°C° 0,6 mm 4 m/s 743 mmHg 72%
    15:00 +17°C° 0,6 mm 4 m/s 743 mmHg 75%
    16:00 +16°C° 0,6 mm 5 m/s 743 mmHg 77%
    17:00 +15°C° 0,2 mm 5 m/s 743 mmHg 78%
    18:00 +14°C° 0,2 mm 5 m/s 743 mmHg 79%
    19:00 +13°C° 0,2 mm 4 m/s 744 mmHg 79%
    20:00 +12°C° 0 mm 4 m/s 744 mmHg 78%
    21:00 +11°C° 0 mm 4 m/s 745 mmHg 77%
    22:00 +10°C° 0 mm 4 m/s 746 mmHg 76%
    23:00 +10°C° 0 mm 4 m/s 746 mmHg 76%
    Mostrar mais